Flag for United Kingdom Weather past 2 weeks in Glasgow, Scotland, United Kingdom

Now
57 °F

Partly sunny.


Feels Like: 56 °F
Forecast: 54 / 61 °F
Wind: 6 mph from Southwest

Location: Glasgow Airport

Current Time: Jul 6, 2015 at 9:14:27 AM

Latest Report: Jul 6, 2015 at 8:50 AM


Visibility: N/A

Pressure: 29.95 "Hg

Humidity: 88%

Dew point: 54 °F

Location of GlasgowLocation

Historic Weather in Glasgow — Graph

°F

Glasgow temperature yesterday

Maximum temperature yesterday: 68 °F (at 12:20 PM)
Minimum temperature yesterday: 48 °F (at 4:50 AM)
Average temperature yesterday: 58 °F

Past Weeks' High & Low Weather Summary

 TemperatureHumidityPressure
High79 °F (Jul 1, 2:20 PM)100% (Jun 23, 2:20 AM)30.27 "Hg (Jun 23, 2:20 AM)
Low39 °F (Jun 23, 3:50 AM)47% (Jul 3, 5:20 PM)29.77 "Hg (Jun 22, 3:50 AM)
Average59 °F82%29.97 "Hg
* Reported Jun 21 7:20 AM — Jul 6 7:50 AM, Glasgow, Weather by CustomWeather, © 2015

Note: Actual official high and low records may vary slightly from our data, if they occured in-between our weather recording intervals... More about our weather records

Advertising

Glasgow weather history for previous 24 hours

 ConditionsComfort  
Time TempWeatherWind HumidityBarometerVisibility
7:50 AM
Mon, Jul 6
55 °FPartly sunny.9 mph94%29.95 "HgN/A
7:20 AM55 °FPartly sunny.5 mph94%29.95 "HgN/A
6:50 AM54 °FPartly sunny.3 mph100%29.95 "HgN/A
6:20 AM54 °FPartly sunny.2 mph94%29.92 "HgN/A
5:50 AM52 °FPartly sunny.3 mph100%29.92 "Hg6 mi
5:20 AM52 °FPassing clouds.3 mph100%29.92 "HgN/A
4:20 AM52 °FPassing clouds.3 mph100%29.92 "HgN/A
3:50 AM54 °FPassing clouds.2 mph100%29.92 "HgN/A
3:20 AM54 °FOvercast.2 mph100%29.92 "HgN/A
2:50 AM54 °FOvercast.1 mph100%29.92 "HgN/A
2:20 AM54 °FOvercast.1 mph100%29.92 "HgN/A
1:50 AM54 °FMostly cloudy.1 mph100%29.92 "HgN/A
1:20 AM54 °FMostly cloudy.1 mph94%29.92 "HgN/A
12:50 AM52 °FPassing clouds.1 mph94%29.92 "HgN/A
12:20 AM52 °FLight fog.1 mph94%29.92 "HgN/A
11:50 PM
Sun, Jul 5
50 °FFog.2 mph100%29.92 "HgN/A
11:20 PM54 °FClear.2 mph94%29.92 "Hg10 mi
10:50 PM52 °FSunny.6 mph94%29.92 "Hg10 mi
10:20 PM54 °FSunny.5 mph94%29.89 "Hg10 mi
9:50 PM55 °FScattered clouds.6 mph88%29.89 "HgN/A
9:20 PM59 °FScattered clouds.5 mph82%29.89 "HgN/A
8:50 PM59 °FScattered clouds.2 mph82%29.89 "HgN/A
8:20 PM59 °FScattered clouds.3 mph82%29.89 "HgN/A
7:50 PM61 °FScattered clouds.2 mph83%29.89 "HgN/A
7:20 PM59 °FScattered clouds.5 mph82%29.89 "HgN/A
6:50 PM61 °FScattered clouds.5 mph83%29.89 "HgN/A
6:20 PM63 °FBroken clouds.3 mph77%29.89 "HgN/A
5:50 PM61 °FBroken clouds.6 mph83%29.89 "HgN/A
5:20 PM61 °FScattered showers. Broken clouds.6 mph94%29.89 "HgN/A
4:50 PM59 °FSprinkles. Broken clouds.5 mph94%29.92 "HgN/A
4:20 PM61 °FLight rain. Broken clouds.6 mph88%29.92 "HgN/A
3:50 PM63 °FLight rain. Broken clouds.5 mph83%29.92 "HgN/A
3:20 PM61 °FLight rain. Broken clouds.5 mph88%29.92 "HgN/A
2:50 PM61 °FScattered showers. Broken clouds.8 mph83%29.92 "HgN/A
2:20 PM59 °FLight rain. Broken clouds.8 mph88%29.95 "HgN/A
1:50 PM59 °FLight rain. Broken clouds.5 mph88%29.92 "HgN/A
1:20 PM64 °FSprinkles. Broken clouds.7 mph68%29.95 "HgN/A
12:50 PM64 °FLight rain. Broken clouds.6 mph68%29.95 "HgN/A
12:20 PM68 °FScattered clouds.12 mph60%29.95 "HgN/A
11:50 AM66 °FPartly sunny.7 mph64%29.95 "HgN/A
11:20 AM66 °FPartly sunny.5 mph64%29.98 "HgN/A
10:50 AM64 °FBroken clouds.6 mph64%29.98 "HgN/A
10:20 AM63 °FBroken clouds.2 mph68%30.01 "HgN/A
9:50 AM61 °FBroken clouds.5 mph72%30.01 "HgN/A
9:20 AM61 °FPassing clouds.2 mph77%30.01 "HgN/A
Weather by CustomWeather, © 2015

See weather overviewHow to use our weather pages